Temperature
15 14 14 14 14 14 13 13 13 13 13 13 13 13 13 12 13 13 12 12 12 12 12 12 12 12 12 12 12 12 12 11 11 11 11 11 11 11 11 11 11 11 11
14 14 14 14 13 13 13 13 13 13 13 13 12 12 12 12 12 12 12 12 12 12 12 12 12 12 12 12 12 11 11 11 11 11 11 11 11 11 11 11 11 11 11
14 14 13 13 13 13 13 13 12 12 12 12 12 12 12 12 12 12 12 12 12 12 12 12 12 11 11 11 11 11 11 11 11 11 11 11 10 10 10 11 11 11 11
14 13 13 13 13 13 12 12 12 12 12 12 12 12 12 12 12 12 12 12 12 12 12 11 11 11 11 11 11 11 11 11 11 10 11 10 10 10 10 10 10 10 10
13 13 13 12 12 12 12 12 12 12 12 12 12 12 12 12 12 12 11 11 11 11 11 11 11 11 11 11 11 11 11 10 10 10 10 10 10 10 10 10 10 10 10
13 13 13 12 12 12 12 12 11 11 11 11 11 11 11 11 11 11 11 11 11 11 11 11 11 11 11 11 11 11 11 10 10 10 10 10 10 10 10 9 9 9 9
13 12 12 12 12 12 11 11 11 11 11 11 11 11 11 11 11 11 11 11 11 11 10 10 10 11 10 10 10 10 10 10 10 10 10 10 10 10 9 9 9 9 9
12 12 12 12 11 11 11 11 11 11 11 10 10 10 11 11 11 11 11 10 10 10 10 10 10 10 10 10 10 10 10 10 10 9 9 9 9 9 9 9 9 9 9
12 12 11 11 11 11 11 11 10 10 10 10 10 10 10 10 10 10 10 10 10 10 10 10 10 10 10 10 9 9 9 9 9 9 9 9 9 9 9 9 9 9 9
11 11 11 11 11 11 10 10 10 10 10 10 9 9 9 10 10 10 10 9 9 9 9 9 10 9 10 10 9 9 9 9 9 9 9 9 9 9 9 8 8 8 8
11 11 11 10 10 10 10 10 10 10 9 9 9 9 9 9 9 9 9 9 9 9 9 9 9 9 9 9 9 8 9 8 8 8 8 8 8 8 8 8 8 8 8
11 10 10 10 10 10 10 10 9 9 9 9 9 8 8 9 9 9 9 9 9 8 8 8 8 9 9 9 8 8 8 8 8 8 8 8 8 8 8 8 8 8 8
10 10 9 9 9 9 9 9 9 9 8 8 8 8 8 8 8 8 8 8 8 8 8 8 8 8 8 8 8 8 8 7 7 7 7 7 7 7 7 7 7 7 7
9 9 9 9 8 8 8 8 8 8 8 8 8 8 8 7 7 7 8 8 8 7 7 7 8 8 7 7 7 7 7 7 7 7 7 7 7 7 7 7 7 7 7
9 8 8 8 8 8 8 8 8 8 7 7 7 7 7 7 7 7 7 7 7 7 7 7 7 7 7 7 6 6 6 6 6 6 6 6 6 6 6 6 6 6 6
8 8 8 8 7 7 7 7 7 7 7 7 7 7 7 7 7 7 7 7 7 6 6 6 6 6 6 6 6 6 6 6 5 5 5 5 5 5 5 5 5 5 5
7 7 7 7 7 7 7 7 6 6 6 6 6 6 6 6 6 6 6 6 6 6 6 5 5 5 5 5 5 5 5 5 5 5 5 5 5 5 5 5 5 5 5
7 7 7 7 6 6 6 6 6 6 5 6 6 6 6 6 6 5 5 5 5 5 5 5 5 4 4 4 4 4 4 4 4 4 4 4 4 4 4 4 4 4 4
6 6 6 6 6 6 6 5 5 5 5 5 5 5 5 5 5 5 4 4 4 4 4 4 4 4 4 4 4 4 4 4 3 3 3 3 3 3 4 4 4 4 4
6 6 6 6 5 5 5 5 5 5 4 4 4 4 4 4 4 4 4 3 3 3 3 3 3 3 3 3 3 3 3 3 3 3 3 3 3 3 3 3 3 3 3
5 5 5 5 5 5 4 4 4 4 4 4 4 4 4 3 3 3 3 3 3 2 2 2 3 3 3 3 2 2 2 2 2 2 2 2 2 2 2 3 3 3 3
5 5 4 4 4 4 4 4 3 3 3 3 3 3 3 3 3 2 2 2 2 2 2 2 2 2 2 2 2 2 2 2 2 2 2 2 2 2 2 2 2 2 2
4 4 4 4 3 3 3 3 3 3 3 3 2 2 2 2 2 2 2 2 2 1 1 1 1 1 1 1 1 1 1 1 1 1 1 1 1 1 1 1 1 2 2
4 4 3 3 3 3 3 3 2 2 2 2 2 2 2 2 2 2 1 1 1 1 1 1 1 1 1 1 1 1 1 1 1 1 1 1 1 1 1 1 1 1 1
3 3 3 3 3 2 2 2 2 2 2 2 1 1 1 1 1 1 1 1 1 1 1 0 0 0 0 0 0 0 1 1 1 0 0 0 0 0 0 0 0 0 1
3 3 2 2 2 2 2 2 1 1 1 1 1 1 1 1 1 0 0 0 -0 -0 -0 -0 -0 0 0 0 0 0 0 0 0 0 0 -0 -0 -0 0 -0 -0 0 0
Wind_Speed
4 4 3 3 3 3 3 3 3 3 3 3 4 3 3 3 3 3 3 3 3 3 3 4 4 3 3 3 3 3 3 3 3 2 1 1 1 1 1 1 1 0 1
3 3 4 4 3 4 3 3 4 3 3 3 4 4 4 4 4 4 4 3 4 4 4 4 4 3 4 3 3 3 3 3 3 3 2 2 2 2 1 1 1 1 0
3 3 3 4 4 4 4 4 4 4 3 3 4 4 4 4 4 4 4 4 4 4 4 4 4 4 4 3 4 4 3 3 3 3 2 1 2 2 2 2 2 2 1
3 4 4 3 3 4 4 4 4 3 3 3 3 4 4 4 5 5 4 4 4 4 4 4 4 4 4 4 4 4 3 3 3 3 3 2 2 3 3 3 2 2 2
4 4 3 3 3 3 3 4 3 3 3 3 3 3 3 3 4 4 4 4 4 4 4 5 4 3 3 3 3 4 4 3 3 3 3 3 3 3 3 3 3 3 3
4 4 3 3 3 3 3 3 3 3 3 3 3 3 3 3 1 2 3 4 4 4 4 4 4 5 4 4 4 4 5 5 5 4 4 4 4 3 3 3 4 4 3
3 3 3 3 3 3 3 3 3 3 3 3 3 3 3 2 2 3 3 4 4 4 4 4 3 4 4 5 5 6 6 6 6 6 5 5 5 4 4 4 5 5 4
3 3 3 3 3 3 3 3 3 3 3 3 3 3 3 3 3 4 5 5 4 4 4 4 5 4 4 5 5 5 6 6 6 7 6 5 5 5 5 6 6 6 5
2 3 3 3 3 3 4 4 3 3 3 3 3 3 4 3 3 4 5 4 4 4 4 5 5 5 2 3 5 6 5 5 4 5 5 4 4 4 5 4 5 5 6
2 3 3 3 3 4 4 3 3 3 4 3 3 4 4 3 2 3 6 4 4 4 4 4 4 4 2 4 6 6 6 5 5 4 5 6 6 6 7 7 6 6 6
2 2 2 3 3 3 3 3 3 3 4 4 4 4 3 3 2 3 4 4 4 4 4 4 3 3 4 5 7 6 5 5 5 6 5 5 5 5 5 6 6 6 6
2 2 2 2 2 2 2 2 3 3 4 4 4 4 3 3 2 2 3 4 5 5 4 4 3 3 5 6 6 5 5 5 5 5 5 5 5 5 5 5 6 6 6
1 1 1 1 1 2 2 2 3 3 3 3 4 4 3 2 2 2 3 4 5 4 4 3 4 4 6 6 6 6 5 5 5 5 6 6 5 5 5 4 5 6 7
2 1 1 1 1 1 1 2 2 3 3 3 3 3 3 3 3 3 3 3 4 4 4 3 4 5 5 5 5 5 5 5 5 5 5 5 5 5 5 5 5 5 5
2 1 1 1 1 1 1 2 2 2 2 3 3 3 4 3 2 3 3 3 3 3 4 4 3 3 3 3 3 4 4 4 5 5 5 5 5 5 5 5 5 5 7
2 2 2 1 1 1 1 1 3 2 2 2 3 3 2 3 2 2 3 3 3 3 4 4 4 4 4 4 4 4 4 4 5 5 5 6 5 6 6 5 6 7 7
2 2 2 2 2 2 2 2 2 2 1 2 2 3 3 3 2 2 2 2 3 3 4 4 4 4 4 4 4 4 5 5 5 5 5 5 6 6 6 6 6 7 7
2 2 2 2 3 3 3 3 3 3 3 3 2 2 2 3 3 3 2 2 2 3 3 4 4 4 4 4 4 5 5 4 5 5 5 5 6 6 6 7 7 8 7
2 2 2 3 3 3 3 3 3 4 4 4 3 2 2 2 3 2 3 3 4 4 4 4 4 4 4 4 4 5 5 5 5 5 6 6 6 6 7 7 7 8 8
2 2 2 3 3 3 3 3 3 4 4 4 4 4 3 3 3 3 3 3 4 4 4 4 4 5 5 5 5 5 5 5 6 6 6 6 6 7 8 8 8 7 7
2 2 2 2 3 3 3 4 4 4 4 4 4 4 3 4 4 4 4 4 4 5 5 5 5 5 5 5 5 6 6 6 6 6 6 6 6 7 7 7 8 8 7
2 2 3 3 2 3 3 3 4 4 5 5 5 4 4 5 4 4 4 4 4 5 5 5 5 5 5 5 5 6 6 6 6 6 6 7 7 7 7 7 7 7 7
3 3 2 2 2 2 3 3 4 4 5 5 5 4 4 5 5 4 4 4 4 5 4 4 4 4 5 5 5 5 6 6 6 7 7 7 7 7 7 8 9 9 8
2 2 2 2 2 3 3 3 4 5 5 5 5 5 5 5 5 5 5 5 4 5 5 5 5 6 7 6 6 6 6 7 8 8 9 8 8 7 7 7 8 9 8
2 2 2 3 3 3 3 4 4 5 5 5 5 5 5 5 5 5 5 4 5 5 5 5 5 6 8 8 8 7 8 9 9 9 8 7 8 8 8 8 8 8 8
2 2 2 2 3 3 3 3 4 4 4 5 5 5 5 5 5 4 4 4 4 4 5 5 6 8 9 8 8 9 9 9 9 11 9 7 8 8 8 8 9 8 8
Wind_Direction
224 227 225 230 231 239 248 261 266 270 271 271 258 249 240 233 221 216 228 227 234 234 231 234 233 231 218 217 228 243 254 258 250 256 252 238 250 277 332 316 315 257 117
226 231 234 231 230 238 245 250 252 255 263 266 259 248 240 237 232 228 229 228 235 238 237 239 237 226 231 225 224 231 239 251 248 249 241 246 252 267 270 274 268 250 285
221 226 230 232 234 240 246 248 246 245 251 255 257 246 241 238 234 232 229 231 236 236 234 239 244 239 237 231 230 233 234 234 236 238 247 250 252 257 255 250 253 249 256
215 219 227 234 239 243 244 241 241 242 245 248 255 244 237 235 233 229 228 231 236 235 234 236 240 242 245 239 234 235 232 226 226 232 238 243 245 247 247 245 252 243 249
217 223 228 234 233 236 239 238 237 241 246 247 247 238 230 234 235 234 231 233 239 241 237 234 232 244 280 266 252 239 229 228 226 229 237 242 246 243 244 247 253 254 254
224 230 229 231 230 232 235 234 229 234 243 247 241 233 222 225 198 229 246 229 232 241 243 237 228 224 224 229 250 258 256 241 235 233 239 242 245 250 262 255 254 254 262
229 231 231 231 230 231 232 227 225 228 236 241 241 237 226 214 186 196 231 237 237 245 249 244 234 231 225 228 221 224 241 252 255 252 248 249 252 248 249 255 259 260 263
235 238 237 240 236 229 226 227 232 231 231 240 245 243 235 216 194 205 219 233 239 243 245 246 242 236 231 239 234 235 239 237 236 240 248 256 260 259 252 255 261 264 259
241 247 246 239 235 230 229 233 238 235 235 238 242 245 239 221 200 213 219 226 235 241 245 247 248 245 219 246 243 242 246 247 234 241 264 272 286 275 259 250 246 249 256
252 253 255 245 235 234 236 240 245 240 239 240 242 247 247 247 200 214 237 232 239 242 243 242 243 254 235 236 244 247 250 253 250 241 241 236 238 230 230 240 243 250 259
268 259 253 245 239 238 240 238 235 240 242 244 246 249 253 257 211 215 253 252 251 249 247 247 240 225 234 242 255 257 265 273 259 252 252 249 243 236 230 238 246 248 255
262 259 254 249 250 238 234 238 236 234 239 246 253 253 256 249 259 233 246 264 284 260 258 256 252 221 240 248 251 261 272 270 258 252 251 249 245 243 242 242 245 248 257
239 247 249 251 258 250 240 237 236 237 245 250 251 256 257 258 246 232 237 253 268 268 272 290 285 253 246 242 237 243 246 250 250 252 253 255 255 256 253 248 248 251 257
225 228 225 229 258 280 282 263 252 248 248 254 260 259 259 256 257 254 246 248 242 256 269 261 241 236 239 250 242 236 243 248 250 253 258 262 260 254 248 244 244 247 253
222 228 229 230 251 271 291 299 279 278 275 263 263 264 261 260 281 307 280 269 271 274 277 270 268 264 263 264 262 255 249 247 250 253 257 260 258 254 253 250 248 252 254
236 236 239 243 247 251 267 312 359 329 344 311 301 295 292 308 314 297 298 291 275 263 266 264 265 263 267 269 268 269 269 264 262 259 257 258 255 253 252 249 245 245 250
250 253 252 251 248 250 252 256 272 301 299 295 282 281 288 297 294 285 287 273 250 251 256 260 264 267 270 270 270 269 269 271 271 268 266 264 261 257 250 247 245 247 250
255 261 262 258 256 255 254 257 260 266 273 282 277 262 266 268 267 266 254 253 265 261 263 265 270 274 277 278 278 276 273 273 270 268 267 266 265 263 259 254 249 249 251
251 259 260 264 261 258 259 261 262 266 271 278 282 280 268 264 251 253 255 277 272 267 268 269 272 276 280 281 283 282 276 273 268 264 265 263 261 260 261 261 258 254 251
258 277 276 263 256 255 261 265 265 268 274 277 279 284 286 286 289 291 284 284 281 275 273 273 273 274 274 276 278 278 273 270 269 265 266 264 261 259 260 261 259 256 253
261 259 252 261 263 264 265 269 270 269 271 277 281 290 297 278 281 286 287 285 283 280 278 277 277 277 276 276 275 274 276 274 272 269 265 263 262 264 265 263 260 258 256
253 253 255 255 257 262 273 275 274 274 276 278 284 286 269 268 276 282 285 287 290 284 277 274 276 277 276 275 278 277 276 280 279 274 270 268 266 263 261 261 263 263 259
246 245 240 255 264 265 263 270 275 274 276 276 279 284 277 275 276 277 282 286 288 288 286 279 278 280 285 287 285 280 278 281 284 283 278 274 270 266 264 262 260 262 259
244 242 249 257 263 263 263 270 276 278 277 276 275 276 276 275 276 278 281 283 282 285 285 282 278 278 281 284 283 282 285 291 293 284 275 273 271 268 268 267 265 263 260
246 253 261 264 265 266 266 269 273 277 279 279 279 281 282 280 282 285 288 286 287 288 291 290 286 287 285 284 284 288 296 296 293 292 280 271 268 266 267 266 265 265 262
251 257 262 269 273 276 277 276 279 283 285 285 282 281 282 283 285 287 288 288 289 289 289 289 288 290 290 288 290 295 295 293 290 288 281 271 266 263 264 263 263 261 262
Height
1535 1535 1535 1535 1535 1535 1535 1534 1534 1533 1533 1533 1532 1532 1532 1532 1532 1531 1531 1531 1532 1532 1531 1532 1532 1532 1531 1531 1531 1531 1531 1532 1532 1531 1530 1529 1528 1528 1527 1527 1526 1525 1525
1532 1532 1532 1532 1532 1532 1532 1531 1531 1530 1530 1530 1530 1530 1529 1529 1529 1529 1529 1529 1529 1529 1529 1530 1530 1530 1530 1530 1529 1529 1529 1529 1530 1529 1528 1528 1527 1526 1526 1525 1525 1524 1524
1529 1529 1529 1529 1529 1529 1529 1528 1528 1528 1527 1527 1527 1527 1527 1527 1527 1527 1527 1527 1527 1527 1527 1527 1528 1528 1528 1527 1527 1527 1527 1527 1527 1527 1526 1526 1525 1525 1524 1524 1523 1522 1522
1526 1526 1526 1526 1526 1526 1525 1525 1525 1525 1525 1524 1524 1524 1524 1524 1524 1524 1524 1524 1525 1525 1524 1524 1524 1525 1525 1525 1525 1525 1525 1525 1524 1524 1524 1523 1523 1522 1522 1522 1522 1521 1520
1523 1523 1523 1523 1523 1523 1523 1522 1522 1522 1522 1522 1521 1521 1521 1521 1521 1521 1521 1522 1522 1522 1522 1522 1521 1522 1521 1522 1522 1522 1522 1522 1522 1522 1522 1521 1521 1520 1520 1520 1520 1519 1518
1521 1520 1520 1520 1520 1520 1520 1520 1519 1519 1519 1518 1518 1518 1518 1518 1518 1518 1518 1518 1518 1519 1519 1519 1518 1518 1518 1519 1519 1519 1519 1519 1519 1519 1519 1519 1518 1518 1518 1517 1517 1517 1516
1518 1517 1517 1517 1517 1517 1517 1517 1516 1516 1516 1515 1515 1515 1515 1515 1515 1514 1515 1515 1515 1516 1516 1516 1516 1516 1515 1516 1516 1516 1515 1515 1516 1516 1516 1516 1516 1515 1515 1515 1514 1514 1514
1515 1515 1514 1514 1514 1514 1514 1514 1514 1513 1513 1512 1512 1511 1511 1511 1511 1512 1512 1512 1512 1512 1513 1513 1513 1513 1512 1513 1513 1513 1512 1512 1512 1512 1512 1512 1512 1512 1512 1512 1511 1511 1510
1512 1511 1511 1511 1511 1511 1511 1511 1511 1511 1510 1509 1509 1508 1508 1508 1508 1508 1508 1509 1509 1509 1509 1509 1509 1509 1509 1509 1509 1509 1509 1509 1509 1508 1508 1508 1507 1507 1507 1508 1507 1507 1507
1508 1508 1508 1508 1508 1508 1508 1507 1507 1507 1507 1507 1506 1505 1505 1504 1504 1504 1505 1505 1505 1505 1505 1505 1505 1505 1505 1505 1505 1505 1505 1505 1505 1504 1504 1504 1503 1503 1503 1503 1503 1503 1503
1505 1505 1505 1505 1505 1504 1504 1504 1504 1504 1504 1503 1503 1502 1501 1500 1500 1500 1501 1501 1501 1502 1501 1501 1501 1501 1501 1501 1501 1501 1501 1501 1500 1500 1500 1500 1499 1499 1499 1499 1499 1499 1499
1503 1502 1502 1502 1501 1501 1501 1500 1500 1500 1500 1500 1499 1498 1497 1497 1496 1496 1497 1497 1497 1497 1497 1497 1497 1497 1496 1496 1496 1496 1496 1496 1496 1496 1496 1495 1495 1494 1494 1494 1494 1494 1494
1499 1499 1499 1498 1498 1498 1498 1497 1497 1496 1496 1496 1495 1494 1494 1493 1492 1492 1493 1493 1493 1493 1492 1492 1492 1492 1491 1491 1491 1491 1491 1491 1491 1491 1490 1490 1490 1490 1489 1489 1489 1489 1488
1497 1496 1496 1495 1495 1495 1494 1494 1494 1493 1492 1492 1492 1491 1490 1489 1489 1488 1488 1488 1488 1488 1488 1487 1487 1487 1486 1486 1486 1486 1486 1486 1486 1485 1485 1485 1485 1485 1484 1484 1484 1483 1483
1494 1494 1493 1493 1492 1491 1491 1491 1490 1489 1489 1489 1488 1487 1487 1486 1485 1484 1484 1484 1483 1483 1483 1483 1482 1482 1481 1481 1481 1481 1481 1480 1480 1480 1480 1479 1479 1479 1479 1479 1478 1478 1478
1491 1490 1490 1490 1489 1489 1488 1487 1486 1486 1485 1484 1484 1483 1482 1482 1481 1480 1480 1479 1479 1479 1479 1478 1477 1477 1476 1476 1475 1475 1475 1475 1474 1474 1474 1474 1474 1473 1473 1473 1473 1472 1472
1488 1487 1487 1487 1486 1486 1485 1484 1483 1482 1481 1480 1479 1479 1478 1477 1477 1476 1475 1475 1475 1474 1474 1473 1473 1472 1472 1471 1470 1470 1469 1469 1469 1469 1468 1468 1468 1468 1467 1467 1467 1467 1467
1484 1484 1484 1483 1483 1483 1482 1481 1480 1479 1478 1477 1476 1475 1474 1473 1473 1472 1471 1471 1470 1470 1469 1469 1468 1468 1467 1466 1465 1465 1464 1464 1463 1463 1463 1462 1462 1462 1462 1461 1461 1461 1461
1481 1481 1480 1480 1480 1479 1478 1478 1477 1476 1475 1474 1473 1472 1470 1469 1469 1468 1467 1467 1466 1465 1465 1464 1464 1463 1462 1461 1460 1460 1459 1459 1458 1458 1457 1457 1456 1456 1455 1455 1455 1455 1454
1478 1477 1477 1476 1476 1476 1475 1474 1473 1473 1472 1471 1469 1468 1467 1466 1465 1464 1463 1462 1462 1461 1460 1460 1459 1458 1457 1457 1456 1455 1454 1453 1453 1452 1452 1451 1451 1450 1450 1449 1449 1449 1448
1474 1474 1474 1473 1473 1472 1472 1471 1470 1469 1468 1467 1466 1465 1464 1463 1462 1461 1459 1458 1458 1457 1456 1455 1454 1453 1452 1451 1451 1450 1449 1448 1447 1446 1446 1445 1445 1444 1444 1444 1443 1443 1442
1471 1471 1470 1470 1469 1469 1468 1467 1467 1466 1465 1464 1463 1462 1460 1459 1458 1457 1456 1454 1453 1452 1451 1450 1449 1448 1447 1446 1445 1444 1443 1442 1441 1440 1440 1439 1439 1438 1438 1438 1437 1437 1436
1468 1467 1467 1466 1466 1465 1464 1464 1463 1462 1461 1460 1459 1458 1456 1455 1454 1453 1451 1450 1449 1447 1446 1445 1444 1443 1442 1441 1440 1439 1438 1436 1436 1435 1434 1433 1432 1432 1432 1431 1431 1430 1430
1464 1464 1464 1463 1462 1461 1460 1460 1459 1458 1457 1456 1455 1454 1452 1451 1450 1448 1447 1445 1444 1443 1441 1440 1439 1438 1436 1435 1434 1433 1432 1431 1430 1429 1428 1427 1426 1426 1426 1425 1425 1424 1424
1461 1461 1460 1460 1459 1458 1457 1456 1455 1454 1453 1452 1451 1450 1448 1447 1445 1444 1442 1441 1439 1438 1436 1435 1434 1432 1431 1429 1428 1427 1426 1425 1424 1422 1421 1421 1420 1419 1419 1419 1419 1418 1418
1458 1457 1457 1456 1455 1454 1453 1452 1451 1450 1449 1448 1447 1445 1444 1442 1441 1439 1437 1436 1434 1432 1431 1430 1428 1427 1425 1424 1423 1421 1420 1419 1417 1416 1415 1414 1414 1413 1413 1413 1413 1413 1413